Time,TemperatureF,DewpointF,PressureIn,WindDirection,WindDirectionDegrees,WindSpeedMPH,WindSpeedGustMPH,Humidity,HourlyPrecipIn,Conditions,Clouds,dailyrainin,SoftwareType,DateUTC
2015-03-28 00:00:00,64.0,37.2,29.97,NW,309,0.0,-999.0,37,0.00,,,0.00,Wunderground v.1.15,2015-03-28 07:00:00,
2015-03-28 00:06:00,63.9,37.8,29.97,NW,309,0.0,-999.0,38,0.00,,,0.00,Wunderground v.1.15,2015-03-28 07:06:00,
2015-03-28 00:12:00,63.8,37.7,29.98,NW,309,0.0,-999.0,38,0.00,,,0.00,Wunderground v.1.15,2015-03-28 07:12:00,
2015-03-28 00:17:00,64.2,38.0,29.98,NW,309,0.0,-999.0,38,0.00,,,0.00,Wunderground v.1.15,2015-03-28 07:17:00,
2015-03-28 00:24:00,64.2,38.7,29.98,NW,309,0.0,-999.0,39,0.00,,,0.00,Wunderground v.1.15,2015-03-28 07:24:00,
2015-03-28 00:30:00,64.0,38.5,29.98,NW,309,0.0,-999.0,39,0.00,,,0.00,Wunderground v.1.15,2015-03-28 07:30:00,
2015-03-28 00:36:00,63.8,39.0,29.98,NW,309,0.0,-999.0,40,0.00,,,0.00,Wunderground v.1.15,2015-03-28 07:36:00,
2015-03-28 00:41:00,63.4,38.6,29.97,NW,309,0.0,-999.0,40,0.00,,,0.00,Wunderground v.1.15,2015-03-28 07:41:00,
2015-03-28 00:48:00,63.0,38.9,29.97,NW,309,0.0,-999.0,41,0.00,,,0.00,Wunderground v.1.15,2015-03-28 07:48:00,
2015-03-28 00:54:00,62.5,39.1,29.98,NW,309,0.0,-999.0,42,0.00,,,0.00,Wunderground v.1.15,2015-03-28 07:54:00,
2015-03-28 01:00:00,62.3,38.9,29.98,NW,309,0.0,-999.0,42,0.00,,,0.00,Wunderground v.1.15,2015-03-28 08:00:00,
2015-03-28 01:06:00,62.1,38.7,29.97,NW,309,0.0,-999.0,42,0.00,,,0.00,Wunderground v.1.15,2015-03-28 08:06:00,
2015-03-28 01:12:00,61.7,39.0,29.97,NW,309,0.0,-999.0,43,0.00,,,0.00,Wunderground v.1.15,2015-03-28 08:12:00,
2015-03-28 01:18:00,61.7,38.4,29.98,NW,309,0.0,-999.0,42,0.00,,,0.00,Wunderground v.1.15,2015-03-28 08:18:00,
2015-03-28 01:24:00,61.8,37.8,29.97,NW,309,0.0,-999.0,41,0.00,,,0.00,Wunderground v.1.15,2015-03-28 08:24:00,
2015-03-28 01:30:00,61.9,34.6,29.98,NW,309,0.0,-999.0,36,0.00,,,0.00,Wunderground v.1.15,2015-03-28 08:30:00,
2015-03-28 01:36:00,61.9,33.9,29.98,NW,309,0.0,-999.0,35,0.00,,,0.00,Wunderground v.1.15,2015-03-28 08:36:00,
2015-03-28 01:42:00,62.0,31.8,29.98,NW,309,0.0,-999.0,32,0.00,,,0.00,Wunderground v.1.15,2015-03-28 08:42:00,
2015-03-28 01:48:00,62.1,31.9,29.98,NW,309,0.0,-999.0,32,0.00,,,0.00,Wunderground v.1.15,2015-03-28 08:48:00,
2015-03-28 01:54:00,62.0,32.5,29.98,NW,309,0.0,-999.0,33,0.00,,,0.00,Wunderground v.1.15,2015-03-28 08:54:00,
2015-03-28 02:00:00,61.5,32.1,29.98,NW,309,0.0,-999.0,33,0.00,,,0.00,Wunderground v.1.15,2015-03-28 09:00:00,
2015-03-28 02:06:00,61.0,32.4,29.98,NW,309,0.0,-999.0,34,0.00,,,0.00,Wunderground v.1.15,2015-03-28 09:06:00,
2015-03-28 02:12:00,60.6,32.8,29.98,NW,309,0.0,-999.0,35,0.00,,,0.00,Wunderground v.1.15,2015-03-28 09:12:00,
2015-03-28 02:18:00,60.0,32.9,29.98,NW,309,0.0,-999.0,36,0.00,,,0.00,Wunderground v.1.15,2015-03-28 09:18:00,
2015-03-28 02:24:00,59.6,33.3,29.98,NW,309,0.0,-999.0,37,0.00,,,0.00,Wunderground v.1.15,2015-03-28 09:24:00,
2015-03-28 02:30:00,59.3,33.0,29.98,NW,309,0.0,-999.0,37,0.00,,,0.00,Wunderground v.1.15,2015-03-28 09:30:00,
2015-03-28 02:36:00,59.2,33.6,29.98,NW,309,0.0,-999.0,38,0.00,,,0.00,Wunderground v.1.15,2015-03-28 09:36:00,
2015-03-28 02:42:00,58.9,33.3,29.98,NW,309,0.0,-999.0,38,0.00,,,0.00,Wunderground v.1.15,2015-03-28 09:42:00,
2015-03-28 02:48:00,58.6,33.7,29.98,NW,309,0.0,-999.0,39,0.00,,,0.00,Wunderground v.1.15,2015-03-28 09:48:00,
2015-03-28 02:54:00,58.3,33.4,29.98,NW,309,0.0,-999.0,39,0.00,,,0.00,Wunderground v.1.15,2015-03-28 09:54:00,
2015-03-28 03:00:00,57.8,34.2,29.98,NW,309,0.0,-999.0,41,0.00,,,0.00,Wunderground v.1.15,2015-03-28 10:00:00,
2015-03-28 03:06:00,57.5,35.2,29.98,NW,309,0.0,-999.0,43,0.00,,,0.00,Wunderground v.1.15,2015-03-28 10:06:00,
2015-03-28 03:12:00,57.1,34.8,29.98,NW,309,0.0,-999.0,43,0.00,,,0.00,Wunderground v.1.15,2015-03-28 10:12:00,
2015-03-28 03:18:00,56.8,34.5,29.98,NW,309,0.0,-999.0,43,0.00,,,0.00,Wunderground v.1.15,2015-03-28 10:18:00,
2015-03-28 03:24:00,57.0,34.7,29.98,NW,309,0.0,-999.0,43,0.00,,,0.00,Wunderground v.1.15,2015-03-28 10:24:00,
2015-03-28 03:30:00,57.2,35.5,29.98,NW,309,0.0,-999.0,44,0.00,,,0.00,Wunderground v.1.15,2015-03-28 10:30:00,
2015-03-28 03:35:00,57.2,35.5,29.98,NW,309,0.0,-999.0,44,0.00,,,0.00,Wunderground v.1.15,2015-03-28 10:35:00,
2015-03-28 03:42:00,57.2,36.6,29.98,NW,309,0.0,-999.0,46,0.00,,,0.00,Wunderground v.1.15,2015-03-28 10:42:00,
2015-03-28 03:48:00,57.1,37.0,29.98,NW,309,0.0,-999.0,47,0.00,,,0.00,Wunderground v.1.15,2015-03-28 10:48:00,
2015-03-28 03:54:00,57.0,37.0,29.98,NW,309,0.0,-999.0,47,0.00,,,0.00,Wunderground v.1.15,2015-03-28 10:54:00,
2015-03-28 03:59:00,56.7,36.7,29.98,NW,309,0.0,-999.0,47,0.00,,,0.00,Wunderground v.1.15,2015-03-28 10:59:00,
2015-03-28 04:06:00,56.7,37.2,29.98,NW,309,0.0,-999.0,48,0.00,,,0.00,Wunderground v.1.15,2015-03-28 11:06:00,
2015-03-28 04:12:00,56.8,37.3,29.98,NW,309,0.0,-999.0,48,0.00,,,0.00,Wunderground v.1.15,2015-03-28 11:12:00,
2015-03-28 04:18:00,56.6,37.1,29.98,NW,309,0.0,-999.0,48,0.00,,,0.00,Wunderground v.1.15,2015-03-28 11:18:00,
2015-03-28 04:24:00,56.3,37.4,29.98,NW,309,0.0,-999.0,49,0.00,,,0.00,Wunderground v.1.15,2015-03-28 11:24:00,
2015-03-28 04:30:00,56.1,38.2,29.98,NW,309,0.0,-999.0,51,0.00,,,0.00,Wunderground v.1.15,2015-03-28 11:30:00,
2015-03-28 04:36:00,55.9,38.5,29.98,NW,309,0.0,-999.0,52,0.00,,,0.00,Wunderground v.1.15,2015-03-28 11:36:00,
2015-03-28 04:42:00,55.8,38.4,29.99,NW,309,0.0,-999.0,52,0.00,,,0.00,Wunderground v.1.15,2015-03-28 11:42:00,
2015-03-28 04:48:00,55.8,38.4,29.99,NW,309,0.0,-999.0,52,0.00,,,0.00,Wunderground v.1.15,2015-03-28 11:48:00,
2015-03-28 04:54:00,55.5,38.6,29.99,NW,309,0.0,-999.0,53,0.00,,,0.00,Wunderground v.1.15,2015-03-28 11:54:00,